Location: Ferma
(41.9500°N, 44.5167°E)
Time: 13:57:55
(UTC+00:00)

Cosmos 2219 Rocket - Pass Details

Date: 24 October 2021
Orbit: 826 x 848 km, 71.0° (Epoch: 07 December)

Event Time Altitude Azimuth Distance (km) Brightness Sun altitude
Rises 16:28:11 0° 198° (SSW) 3,349 5.4 -26.9°
Reaches altitude 10° 16:30:36 10° 197° (SSW) 2,421 4.6 -27.3°
Enters shadow 16:34:04 40° 190° (S) 1,203 2.9 -28.0°
